Daily Meteorological Summary

Last 30 Days

Daily Data | America/Los_Angeles
as of 10/21/20 9:32 AM PDT
Date Daily Max Temp (°F) Time of Max Temp Daily Min Temp (°F) Time of Min Temp Daily Rain (In) Seasonal Rainfall (In) Wind Spd (mph) Daily Max Wind (mph) Time of Max Wind Max Wind Dir (°) Dew Pt (°F) Max RH (%) Min RH (%) Upper Max Temp (°F) Max Upper Temp Time Upper Min Temp (°F) Min Upper Temp Time Max Temp Inversion (°F) Time of Max Temp Inversion Min Temp Inversion (°F) Time of Min Temp Inversion Bat Volt Min Day (V)
10/20/20 89.4 1430 50.8 0710 0.00 0.00 1.2 7.7 1500 WSW | 244 48.5 94 12 85.8 1624 56.6 0648 13.1 0553 -5.0 1423 12.4
10/19/20 93.3 1515 51.6 0652 0.00 0.00 1.2 9.4 1343 SW | 220 48.9 94 12 89.7 1515 57.2 0728 12.1 1932 -4.9 1458 12.4
10/18/20 96.3 1420 53.1 0710 0.00 0.00 1.3 8.8 1302 W | 275 49.2 94 12 91.5 1432 59.5 0656 14.2 0616 -6.4 1420 12.4
10/17/20 95.6 1449 51.4 0708 0.00 0.00 1.2 8.6 1508 WSW | 248 50.6 94 12 91.6 1532 57.0 0654 12.2 1856 -6.3 1423 12.4
10/16/20 94.5 1552 52.5 0710 0.00 0.00 1.0 6.4 1553 WSW | 239 52.7 94 12 90.6 1527 57.3 0657 12.3 1946 -6.3 1412 12.4
10/15/20 92.1 1536 53.8 0658 0.00 0.00 1.1 8.1 1352 SW | 230 52.7 94 12 89.0 1524 58.7 0617 11.6 1950 -5.7 1419 12.4
10/14/20 89.5 1536 53.8 0658 0.00 0.00 1.3 9.6 1322 SW | 226 53.3 94 12 86.2 1539 58.7 0620 11.3 0346 -5.1 1157 12.4
10/13/20 89.7 1607 53.4 0719 0.00 0.00 1.2 9.9 1246 NW | 310 53.0 94 12 86.0 1613 57.3 0705 10.9 2015 -6.4 1408 12.4
10/12/20 87.3 1540 53.4 0614 0.00 0.00 1.2 8.6 1252 WSW | 242 54.6 94 12 83.7 1535 56.8 0601 9.7 2027 -5.3 1504 12.4
10/11/20 82.9 1538 52.9 0653 0.00 0.00 1.7 12.7 1041 SW | 223 54.0 93 12 79.5 1618 55.1 0731 8.2 2101 -6.2 1410 12.4
10/10/20 83.3 1603 51.6 0606 0.00 0.00 1.4 9.6 1137 SW | 230 51.2 93 12 80.4 1602 54.5 0729 9.2 0227 -5.9 1212 12.4
10/9/20 81.7 1433 52.0 0700 0.00 0.00 1.5 10.7 1250 SSW | 208 52.0 93 12 77.9 1533 53.6 0729 8.8 1950 -5.6 1434 12.4
10/8/20 86.0 1611 56.3 0059 0.00 0.00 1.5 11.8 1308 WSW | 242 51.3 93 12 84.3 1553 60.6 0058 11.6 0525 -3.8 1354 12.5
10/7/20 92.2 1553 53.9 0654 0.00 0.00 1.2 8.1 1307 WSW | 248 51.6 93 12 89.5 1449 58.6 0645 11.1 2008 -4.4 1512 12.4
10/6/20 90.8 1415 54.6 0725 0.00 0.00 1.0 6.8 1302 SW | 223 53.4 93 12 88.0 1417 60.6 0645 12.2 0503 -3.8 1423 12.4
10/5/20 95.2 1528 57.3 0703 0.00 0.00 1.3 12.1 1341 SW | 228 51.3 92 12 91.8 1527 62.0 0653 12.9 1944 -4.9 1359 12.5
10/4/20 96.2 1405 57.0 0658 0.00 0.00 1.1 7.7 1252 WNW | 296 52.8 92 12 93.4 1614 63.1 0644 11.3 0303 -5.4 1406 12.4
10/3/20 96.2 1444 57.2 0654 0.00 0.00 1.0 8.3 1402 WNW | 295 53.9 92 12 92.6 1605 62.9 0602 13.9 0648 -5.5 1403 12.4
10/2/20 97.0 1434 56.5 0625 0.00 0.00 1.0 7.9 1350 WNW | 282 51.9 92 12 93.8 1638 62.3 0705 14.6 0625 -4.9 1158 12.4
10/1/20 98.4 1453 57.7 0659 0.00 0.00 1.0 7.2 1328 SW | 220 53.0 92 12 96.0 1453 63.8 0734 14.1 2321 -5.0 1402 12.5
9/30/20 95.8 1524 57.7 0620 0.00 0.00 1.5 11.4 1257 SSW | 213 52.5 92 12 92.6 1532 63.6 0733 15.6 0544 -5.0 1452 12.4
9/29/20 101.7 1601 58.2 0702 0.00 0.00 1.3 10.5 1446 W | 261 50.6 92 12 99.4 1644 63.8 0729 15.8 2008 -5.3 1441 12.4
9/28/20 95.9 1518 59.1 0632 0.00 0.00 1.1 7.9 1514 SW | 222 57.8 92 12 93.2 1622 64.0 0539 11.4 2149 -4.8 1517 12.5
9/27/20 90.8 1608 58.8 0659 0.00 0.00 1.0 7.9 1243 SSW | 212 56.1 92 12 89.1 1604 63.4 0551 9.4 1953 -4.5 1221 12.4
9/26/20 89.6 1605 57.3 0647 0.00 0.00 1.7 11.2 1307 SW | 227 54.6 92 12 86.9 1618 61.1 0746 8.5 0355 -6.2 1156 12.5
9/25/20 88.9 1527 55.3 0650 0.00 0.00 1.5 12.7 1139 SSW | 194 55.2 92 12 86.8 1529 58.7 0705 10.2 0217 -5.6 1407 12.5
9/24/20 90.3 1427 53.8 0559 0.00 0.00 1.3 10.7 1212 SSW | 203 51.8 92 12 87.1 1641 59.3 0735 11.8 0547 -5.5 1427 12.5
9/23/20 86.6 1534 55.0 0713 0.00 0.00 1.3 9.4 1313 WSW | 237 52.1 92 12 84.6 1546 58.6 0621 12.2 2314 -3.8 1315 12.4
9/22/20 95.1 1455 56.5 0650 0.00 0.00 1.7 14.5 1209 SW | 214 53.0 92 12 91.9 1605 60.6 0649 12.8 0039 -5.4 1359 12.4
9/21/20 97.3 1535 56.4 0644 0.00 0.00 1.3 8.8 1539 SW | 225 53.8 92 12 93.8 1635 61.4 0630 12.6 1942 -5.5 1533 12.5
Max 101.7 - 59.1 - 0.00 - 1.7 14.5 - - 57.8 94 12 99.4 - 64.0 - 15.8 - -3.8 - 12.5
Avg - - - - - - 1.3 - - - 52.6 - - - - - - - - - - -
Min 81.7 - 50.8 - 0.00 - 1.0 6.4 - - 48.5 92 12 77.9 - 53.6 - 8.2 - -6.4 - 12.4